Location: Laterina
(43.5167°N, 11.7167°E)
Time: 06:13:23
(UTC+00:00)

Cosmos 1125 Rocket - Pass Details

Date: 26 June 2021
Orbit: 757 x 780 km, 74.0° (Epoch: 26 July)

Event Time Altitude Azimuth Distance (km) Brightness Sun altitude
Rises 00:47:52 0° 338° (NNW) 3,250 7.4 -19.9°
Reaches altitude 10° 00:50:15 10° 336° (NNW) 2,323 6.6 -19.7°
Maximum altitude 00:55:31 76° 252° (WSW) 802 3.4 -19.3°
Enters shadow 00:58:03 31° 172° (S) 1,324 4.3 -19.1°
